Reflectivity
1 9 16 11 20 13 5 -2 3 -5 -14 3 15 16 -6 -20 -20 -20 -20 -20 -17 -14 -20 -11 -18 -20 -5 12 -10 -20 -20 -20 -20 -20 -20 -20 -20 -19 -20 -20 -20 -20 -20 -20 -20 -20 -20
15 12 14 15 14 15 13 18 14 10 4 10 14 21 12 -13 -20 -20 -20 -20 -20 -20 -20 -20 15 20 17 15 -20 -20 -20 -20 -20 -20 -20 -20 -20 -7 7 -20 -20 -20 -20 -20 -20 -20 -20
12 25 22 18 17 7 8 14 16 19 -19 -4 -11 22 14 -20 -14 -20 -20 -20 -20 -20 -20 -20 -5 17 23 -6 -20 -20 -20 -20 -20 -20 -20 -20 -20 23 18 -20 -20 -20 -20 -20 -20 -20 -20
25 24 2 6 10 16 17 34 17 13 -9 2 -0 16 1 -20 -20 -20 -20 -20 -20 -20 -20 -20 7 5 17 -20 -20 -20 -20 -20 -20 -20 -20 -9 -16 16 22 9 -12 -16 -20 -20 -20 -20 -20
25 18 6 13 0 26 31 15 17 24 19 12 12 -18 -20 -20 -20 -20 -20 -20 -20 -20 -20 -20 -12 -20 -18 -20 -20 -20 -20 -20 -20 -20 -20 -20 -6 8 20 21 7 1 -20 1 -20 -20 -20
35 31 28 23 26 23 16 13 17 17 -9 -20 -20 -20 -20 -20 -20 -20 -20 -20 -20 -20 -20 -20 -5 10 -20 -15 -20 -20 -20 -20 -20 -20 -20 1 19 23 27 27 15 4 21 9 -20 -20 -3
26 22 15 18 11 9 11 19 20 13 -17 -20 -20 -20 -20 -20 -20 -20 -20 -20 -20 -20 -15 -20 -20 -20 -20 -20 -20 -20 -20 -15 2 18 14 -1 13 33 29 3 -8 -2 -20 -12 -20 -20 -2
23 14 1 -14 -7 -16 -19 -20 -20 -20 -20 -20 -20 -20 -20 -20 -20 -20 -20 -20 -1 -20 -17 -20 -20 -20 -20 -20 -6 -20 -20 29 23 21 23 23 25 18 -2 3 0 9 9 -13 -20 -13 2
10 -16 -20 -20 -20 -20 -20 -20 -20 -20 -20 -20 -20 -20 -20 -20 -20 -20 -20 -20 -20 -20 -3 -20 -20 -20 -20 -20 -20 -20 -20 -20 16 24 12 20 -11 8 21 27 24 21 5 -15 -16 -6 12
-2 -20 -20 -20 -20 -20 -20 -20 -20 -20 -20 -20 -20 -20 -20 -20 -20 -20 -20 -20 -20 -20 -20 -20 -20 -20 -20 -20 -20 -20 -20 -20 26 21 12 26 -10 22 19 44 33 26 2 12 -3 16 14
0 -20 -20 -20 -20 -20 -20 -20 -20 -20 -20 -20 -20 -20 -20 -20 -20 -20 -13 -20 -20 -20 -19 -20 -20 -20 2 17 36 12 -20 10 19 9 25 -20 -20 -20 11 16 25 40 26 16 26 27 17
-20 -20 -20 -20 -20 -20 -20 -20 -20 -20 -20 -20 -20 -20 -20 -20 -20 -20 -20 -20 -18 -15 -20 -20 -20 -20 -20 -19 8 12 17 27 27 24 16 21 -0 14 -20 -12 22 23 25 36 31 19 29
-19 -20 -20 -20 -20 -20 -20 -20 -20 -20 -20 -20 -20 -20 -20 -20 -20 -20 -20 -20 -20 -5 -20 -20 -20 -20 -20 -20 -6 13 11 27 32 33 27 -16 -0 -20 -1 14 -17 -11 37 32 29 31 36
-20 -20 -20 -20 -20 -20 -20 -20 -20 -20 -20 -20 -20 -20 -20 -20 -20 -20 -20 -20 -15 -20 -20 -20 -20 -20 -20 -20 -3 -20 -2 6 30 29 31 35 26 -1 11 13 6 13 12 25 32 33 30
-20 -20 -20 -20 -20 -20 -20 -20 -20 -20 -20 -20 -20 -20 -20 -20 -20 -20 -20 -20 -20 -20 -16 11 -6 -20 -20 -20 -20 -9 3 16 29 21 20 21 26 30 44 19 4 14 20 28 36 29 29
-20 -20 -20 -20 -20 -20 -20 -20 -20 -20 -20 -20 -20 -20 -20 -20 -20 -20 -20 -20 -12 12 -4 17 9 -13 -20 -20 -20 -20 9 -1 -2 32 22 21 11 32 32 37 37 31 35 25 35 26 24
-20 -20 -20 -20 -20 -20 -20 -20 -20 -20 -20 -20 -20 -20 -0 -20 -20 -20 -20 -20 -20 -20 -20 -20 -17 -20 -20 -2 6 -11 -19 -20 -12 -8 4 13 16 8 16 22 29 28 29 20 26 26 20
-20 -20 -20 -20 -20 -20 -20 -20 -20 -20 -20 -20 -20 -20 -20 -20 -20 -20 -20 1 6 -20 -20 -20 -18 -7 17 8 -7 -20 18 22 21 7 -20 -14 -20 -17 9 17 15 24 23 27 25 22 26
-20 -20 -20 -20 -20 -20 -20 -20 -20 -20 -20 -20 -20 -20 -20 -20 -20 -20 -20 -20 -20 -20 -20 -20 -10 6 -20 3 7 -13 -20 -9 13 24 -9 -20 -5 -18 -16 3 8 21 26 28 27 20 10
-20 -20 -20 -20 -20 -20 -20 -20 -20 -20 -20 -20 -20 -20 -20 -20 -18 -20 -20 -20 -20 -20 -20 -20 -3 15 -19 -19 15 13 -20 17 -20 23 22 13 23 20 11 8 -17 -18 33 17 7 19 20
-20 -20 -20 -20 -20 -20 -20 -20 -20 -20 -20 -20 -20 -20 -20 -20 -20 -20 -20 -20 -20 -20 -10 -20 -20 2 3 5 -7 -11 -20 -20 -7 30 12 11 -18 -20 -11 -20 -10 -20 -8 -2 -4 18 20
-20 -20 -20 -20 -20 -0 -20 -20 -20 -20 -20 -20 -20 -20 -20 -20 -20 -20 -20 -20 -20 -20 13 -20 9 4 6 10 16 5 -19 -0 -14 -6 -20 -20 -20 -20 -0 -1 -20 -20 -20 -20 -15 15 13
-20 -20 -20 6 -20 -20 -20 -20 -20 -20 -20 -20 -20 -16 -16 -20 -20 -18 -20 5 -15 -20 -20 -20 -20 7 -20 -20 -20 -20 -20 -20 -20 -20 -20 -20 -20 -20 -20 -20 -20 -20 -20 -20 -20 -14 3
-20 -3 0 -17 -20 -20 -20 -20 -20 -20 -20 -20 -20 -8 -16 -20 -20 -17 -20 12 -20 9 13 -20 -13 -2 -12 -20 -20 -20 -20 -20 -20 -20 -20 -20 -20 -20 -20 -20 -20 -20 -20 -20 7 -1 12
-20 6 -5 -20 -20 -20 -20 -20 -20 -20 -20 -20 -15 5 -20 -20 -20 -20 -20 2 -20 -17 -20 14 -20 16 -14 -20 -20 -20 -20 -20 -20 -20 -20 -20 -20 -20 -20 -20 -20 -20 -20 -3 -20 -20 -20
-20 -20 -20 -20 -20 -20 -20 -20 -20 -20 -20 -20 -15 -20 -20 -20 -20 -20 -6 -20 -20 -20 -20 -20 -20 -20 -20 -20 -20 -20 -20 -20 -19 -6 0 -18 -19 -19 -20 -1 -18 21 -18 -16 12 3 23
-20 -20 -20 -20 -20 -20 -20 -20 -20 -20 -20 -20 -20 -1 -17 -19 -20 -20 -20 3 7 -20 -20 -20 -20 -20 -20 -20 -14 -3 -9 -10 -20 -20 -20 -15 11 -20 -20 -15 -20 -20 18 13 9 18 16
-20 -20 -20 -20 -20 -20 -20 -20 -20 -20 -20 -20 -20 -20 -17 -20 -20 -20 -20 -20 -20 21 -20 -20 -20 -20 -20 -20 -20 -12 8 8 -10 -2 10 -11 -20 8 13 17 8 -10 -20 -7 22 24 17
-20 -20 -20 -20 -20 -20 -20 -20 -20 -20 -20 -20 -20 -20 2 -1 -20 -20 -20 -20 11 -2 -20 -20 -20 -3 -20 -20 -20 -9 16 18 11 19 13 12 18 11 -20 12 -8 5 -4 7 -7 -18 -2
Wind_Speed
12 10 8 9 11 12 13 14 12 11 12 11 10 10 11 12 13 12 11 10 12 12 11 12 11 9 4 11 20 18 19 17 12 3 7 14 18 15 23 14 19 24 26 25 22 20 24
9 15 15 16 14 14 15 15 10 11 12 11 11 10 11 10 10 11 11 11 11 12 13 12 12 9 7 32 4 19 24 23 17 15 15 15 13 18 19 20 25 17 23 21 14 15 14
19 19 16 16 14 14 14 13 11 9 10 9 9 7 8 8 10 11 11 11 11 12 12 12 10 8 12 38 5 8 11 16 17 18 21 17 19 17 19 22 25 19 18 20 20 11 13
22 21 20 17 15 13 12 9 11 6 9 9 9 8 8 10 11 12 12 14 15 17 16 14 10 5 20 7 16 25 22 25 22 18 22 21 21 20 23 15 16 15 13 18 9 14 8
21 21 19 17 15 15 9 9 9 7 9 10 9 9 10 10 10 12 14 17 20 21 16 9 2 7 21 7 17 25 24 26 21 26 25 17 22 25 21 19 17 17 21 22 22 17 7
19 16 18 14 12 11 10 9 9 8 9 8 9 11 11 12 14 15 17 20 23 15 8 6 5 6 10 11 7 15 21 24 20 23 21 24 16 24 20 21 28 17 16 19 32 19 21
20 17 16 14 14 12 11 10 9 9 10 9 9 11 12 15 16 15 11 7 7 2 4 9 5 14 24 13 14 21 14 21 22 22 24 25 21 24 38 33 29 28 27 29 37 13 19
19 17 15 13 13 11 10 7 6 6 6 8 9 10 12 14 17 17 6 3 5 2 16 17 22 25 27 18 24 31 18 16 22 29 23 19 27 38 32 25 31 29 31 38 35 17 23
18 17 15 13 12 11 9 7 5 5 6 8 9 11 13 16 16 9 4 6 5 7 7 13 19 17 22 20 38 39 20 27 30 25 30 30 34 24 31 33 30 35 34 41 31 14 22
17 15 14 13 12 11 8 6 5 5 6 8 10 10 10 17 3 6 6 6 5 2 5 9 7 8 6 13 24 31 30 30 27 35 30 26 29 21 23 27 33 33 36 36 30 21 20
16 15 13 11 9 8 7 5 4 6 7 7 8 10 11 7 4 4 1 6 6 3 7 12 6 8 14 7 19 17 14 31 37 39 24 36 25 26 27 32 29 30 26 28 31 26 23
15 13 13 11 8 6 5 5 4 4 4 7 9 10 11 7 2 6 7 6 4 2 10 8 10 21 30 24 18 9 17 7 14 35 32 38 26 24 29 16 12 11 13 25 32 25 24
14 12 11 9 7 6 3 1 3 5 7 10 10 11 8 5 4 6 6 4 5 4 11 10 24 24 22 16 16 23 21 15 5 10 31 34 38 35 25 26 20 11 10 5 4 7 4
13 11 10 9 4 2 1 2 4 7 10 13 11 12 4 5 5 4 3 5 2 9 15 20 19 24 13 15 16 17 19 13 3 8 6 4 24 20 20 33 20 19 17 10 4 3 3
11 10 8 7 6 6 5 6 8 9 10 12 12 3 2 6 6 2 5 2 8 6 14 17 22 10 16 19 13 12 9 7 5 9 10 10 5 3 10 8 9 29 21 15 13 15 5
12 10 8 7 7 9 9 8 9 10 12 14 4 4 4 4 3 3 4 6 6 15 19 12 12 9 15 19 16 15 4 2 5 2 3 2 7 2 5 5 11 6 9 10 8 3 5
11 9 8 8 8 9 8 9 12 13 14 11 1 2 4 3 4 3 3 6 11 13 19 9 19 20 18 19 15 17 7 9 2 6 5 3 4 7 4 4 2 6 5 6 4 1 6
13 10 9 8 7 9 9 10 10 11 12 6 4 3 4 4 2 2 2 5 17 17 12 9 8 13 15 14 13 8 11 7 15 11 6 5 4 5 3 8 3 2 2 4 3 3 2
13 10 9 9 9 10 9 8 8 9 9 4 1 3 1 6 2 3 6 9 13 15 16 11 6 8 13 12 11 4 11 12 6 11 5 4 3 6 4 1 3 4 4 5 4 2 2
11 9 13 11 10 9 6 3 7 7 8 2 2 3 3 2 2 4 7 8 12 10 14 14 11 4 8 10 13 8 17 10 9 11 16 5 4 7 5 3 7 7 6 4 3 2 3
12 11 9 7 6 1 3 3 5 7 8 1 3 2 1 4 5 8 5 7 12 13 8 12 5 8 3 4 6 11 8 12 7 11 4 2 1 3 9 10 10 9 5 3 1 3 2
13 9 8 3 4 5 1 2 4 7 9 1 3 2 4 4 7 7 6 4 9 16 4 9 8 4 5 1 3 11 9 6 6 8 6 2 2 4 4 10 9 6 10 4 4 2 5
10 5 4 5 5 5 5 4 5 8 5 1 1 2 3 5 5 5 5 9 14 9 8 15 12 7 5 8 6 10 10 12 16 18 8 4 2 5 4 11 10 6 3 2 3 7 1
8 8 8 7 6 6 7 7 5 6 8 2 1 2 3 5 2 4 14 12 13 15 9 14 8 5 7 6 5 9 13 15 15 15 8 2 2 3 4 4 4 5 1 6 16 20 13
8 8 7 6 6 6 7 6 7 7 9 1 2 3 2 4 4 10 10 10 11 10 9 8 11 12 7 6 5 7 7 4 6 15 6 7 4 2 2 3 8 7 7 7 12 16 15
8 7 7 7 6 6 8 7 7 8 10 3 2 4 3 1 5 10 12 5 4 5 6 6 12 8 5 2 3 2 3 5 5 5 6 7 6 5 3 2 4 4 15 15 5 7 10
8 7 7 7 6 7 7 7 8 9 9 3 3 3 3 2 6 6 3 6 4 4 3 4 11 8 5 3 2 2 4 4 3 4 4 3 2 4 2 2 6 7 8 13 4 1 4
8 7 6 5 6 6 7 7 8 9 10 4 4 2 2 2 8 5 7 8 7 2 2 6 6 6 5 6 3 3 3 4 5 6 7 3 2 2 1 3 3 11 7 5 3 2 6
7 6 4 4 5 6 7 7 8 8 9 6 2 1 2 2 8 9 16 16 11 9 2 3 3 2 3 3 4 3 3 3 4 4 9 5 3 2 3 2 4 5 5 4 5 7 7
Wind_Direction
211 209 214 124 112 103 101 90 79 75 66 54 42 38 36 29 20 11 9 1 356 334 303 274 252 236 234 234 230 266 288 286 323 220 237 234 235 234 246 236 249 238 250 253 249 251 257
158 121 118 115 112 103 94 85 80 82 74 65 59 29 31 22 13 7 360 350 341 329 320 316 300 253 224 251 304 238 254 270 279 271 260 222 229 227 262 246 240 248 257 262 266 278 287
122 115 110 101 98 96 94 96 95 80 83 72 57 32 18 7 7 354 341 325 312 303 298 300 299 290 237 245 207 204 230 243 244 244 250 249 232 239 247 255 254 261 272 273 259 270 270
125 118 108 105 102 93 95 103 93 73 67 59 47 28 6 2 358 343 330 316 302 292 284 271 267 257 257 276 238 250 266 265 263 254 251 243 258 255 255 282 285 279 264 264 250 258 253
117 114 111 111 105 96 105 92 80 61 52 44 34 20 6 356 344 332 324 311 293 275 258 248 253 188 268 300 217 219 217 228 230 244 251 248 240 246 254 261 268 241 256 247 253 226 242
115 114 107 104 116 126 106 82 67 53 46 32 21 6 352 342 334 329 322 301 276 278 259 221 228 260 265 257 256 236 223 234 229 240 252 238 244 235 232 227 231 229 228 239 253 221 216
122 122 118 123 107 98 89 79 69 55 40 28 14 4 351 341 333 327 330 327 11 20 287 231 235 242 296 306 306 260 233 224 229 237 229 221 224 231 224 225 231 240 242 250 250 211 220
120 116 117 108 100 98 91 84 70 56 33 17 6 356 340 330 321 317 305 318 117 190 286 256 268 278 275 275 276 271 271 231 223 235 240 234 230 225 236 227 226 226 232 241 260 226 208
123 122 116 113 110 101 101 93 76 42 26 16 2 351 341 326 319 313 249 128 159 174 282 294 243 244 240 224 243 252 236 239 235 245 231 239 243 228 233 234 232 223 226 238 245 243 239
124 119 118 114 110 108 102 91 68 52 23 10 1 340 335 322 344 326 40 172 171 215 296 283 261 259 300 257 269 261 239 247 244 241 241 244 243 239 252 266 235 225 223 236 239 236 238
123 118 116 112 105 91 78 68 42 20 358 344 324 327 334 352 286 321 98 347 169 38 295 280 262 107 360 31 333 315 286 247 247 251 230 243 242 228 236 234 231 249 230 234 243 229 242
123 119 109 105 112 111 82 42 18 350 316 333 326 334 342 325 176 263 342 318 41 358 255 274 335 347 344 334 317 267 311 327 281 255 247 255 251 239 239 245 216 266 293 307 234 222 227
123 119 117 115 101 76 67 57 354 337 339 332 326 305 296 292 252 328 337 1 34 172 299 300 334 345 330 347 360 2 349 322 14 285 240 241 244 246 252 254 253 222 219 252 234 198 240
123 119 107 98 109 153 109 64 35 11 357 335 312 309 257 241 265 342 17 39 150 258 291 314 324 327 325 343 341 332 333 326 316 313 295 251 247 252 243 228 245 225 214 227 262 208 187
115 104 108 121 121 93 59 41 34 9 354 343 330 318 281 257 217 170 61 48 219 289 322 322 323 322 315 327 324 319 331 347 343 345 353 355 347 310 8 313 285 228 234 209 239 231 262
116 125 127 116 97 75 49 30 18 5 357 352 349 346 256 175 118 75 87 242 264 303 299 334 306 301 308 320 328 332 355 278 328 270 210 327 290 268 261 347 34 54 307 196 212 243 199
117 120 118 105 85 70 60 26 15 356 344 341 344 217 242 128 70 71 172 240 301 306 314 320 313 303 302 317 337 322 281 288 29 286 220 232 237 288 206 38 300 28 344 30 304 286 233
113 107 91 81 72 67 45 26 0 333 321 307 251 33 227 112 52 180 225 262 311 316 307 306 321 320 320 319 310 314 290 319 348 324 344 12 296 280 11 94 71 193 224 164 147 8 110
101 104 94 79 53 40 32 2 317 303 305 298 259 236 302 91 86 306 294 307 314 322 323 308 299 350 332 327 315 292 305 316 356 337 325 329 320 318 359 35 46 21 33 43 22 339 85
99 88 70 59 51 44 34 324 303 312 302 254 39 18 322 100 220 277 299 307 318 307 310 310 316 323 336 333 330 326 351 2 332 3 337 304 25 7 22 335 290 349 8 49 53 331 60
76 60 65 51 28 331 252 284 330 321 310 272 38 270 2 294 323 301 323 297 318 326 346 314 323 343 12 327 301 348 349 340 13 298 295 72 31 345 333 325 4 325 2 4 27 139 90
72 63 64 63 223 231 237 33 322 323 327 54 111 49 350 281 287 321 335 295 313 328 320 295 298 308 335 226 263 317 308 308 276 312 335 289 251 4 339 25 357 303 301 338 250 278 148
81 89 154 178 144 114 72 44 28 5 339 38 350 356 93 278 300 341 304 334 320 312 292 311 310 333 323 278 254 260 272 257 260 279 287 301 28 23 355 350 332 350 260 222 283 185 70
116 131 135 127 106 78 62 34 9 6 6 283 291 104 65 280 336 309 311 349 342 336 315 314 304 299 282 320 306 278 275 263 261 267 244 198 64 40 287 358 38 277 314 359 62 35 96
125 118 117 99 78 58 47 22 9 4 359 322 290 103 159 282 308 299 331 333 338 333 334 354 355 337 352 359 357 316 315 322 271 241 235 206 125 38 73 326 278 352 23 37 80 48 40
124 121 103 86 70 56 46 26 5 354 353 338 327 90 121 266 255 327 317 348 308 326 330 337 332 329 30 33 48 296 309 283 318 334 73 65 72 118 45 1 315 27 331 347 102 65 46
123 104 87 73 58 45 34 19 10 4 349 338 292 145 125 236 270 343 295 320 330 338 277 298 334 347 24 13 345 322 290 296 298 312 324 13 25 162 145 211 299 344 331 316 46 156 7
116 99 81 62 42 31 21 11 4 1 357 2 283 170 112 258 280 270 328 307 312 338 341 292 8 348 355 24 49 320 328 318 325 310 325 143 96 80 143 203 296 338 0 60 66 296 36
126 109 81 49 24 12 5 359 356 350 347 351 282 268 156 217 251 282 272 255 237 242 175 317 205 328 212 36 9 311 288 297 346 18 341 31 3 270 129 198 232 308 313 94 106 55 35